Location: Newark
(44.6028°N, 124.0883°W)
Time: 08:27:17
(UTC+00:00)

Vanguard 1 Rocket - Pass Details

Date: 28 October 2019
Orbit: 651 x 4225 km, 34.3° (Epoch: 13 November)

Event Time Altitude Azimuth Distance (km) Brightness Sun altitude
Rises 22:27:04 0° 278° (W) 6,419 12.2 23.2°
Reaches altitude 10° 22:31:06 10° 271° (W) 5,822 12.2 22.8°
Maximum altitude 22:48:34 40° 211° (SSW) 5,016 12.7 20.7°
Drops below altitude 10° 23:11:08 10° 152° (SSE) 7,316 12.2 17.7°
Sets 23:17:12 0° 146° (SE) 8,135 12.3 16.9°
